Tillbaka till svenska Fidonet
English   Information   Debug  
FILM   0/18
FNEWS_PUBLISH   4926
FN_SYSOP   42201
FN_SYSOP_OLD1   71952
FTP_FIDO   0/2
FTSC_PUBLIC   0/13972
FUNNY   0/4886
GENEALOGY.EUR   0/71
GET_INFO   105
GOLDED   0/408
HAM   3215/16660
HOLYSMOKE   0/6791
HOT_SITES   0/1
HTMLEDIT   0/71
HUB203   466
HUB_100   264
HUB_400   39
HUMOR   0/29
IC   0/2851
INTERNET   0/424
INTERUSER   0/3
IP_CONNECT   719
JAMNNTPD   0/233
JAMTLAND   0/47
KATTY_KORNER   0/41
LAN   0/16
LINUX-USER   0/19
LINUXHELP   0/1155
LINUX   0/22300
LINUX_BBS   0/957
mail   18.68
mail_fore_ok   249
MENSA   0/341
MODERATOR   0/102
MONTE   0/992
MOSCOW_OKLAHOMA   0/1245
MUFFIN   0/783
MUSIC   0/321
N203_STAT   938
N203_SYSCHAT   313
NET203   321
NET204   69
NET_DEV   0/10
NORD.ADMIN   0/101
NORD.CHAT   0/2572
NORD.FIDONET   189
NORD.HARDWARE   0/28
NORD.KULTUR   0/114
NORD.PROG   0/32
NORD.SOFTWARE   0/88
NORD.TEKNIK   0/58
NORD   0/453
OCCULT_CHAT   0/93
OS2BBS   0/787
OS2DOSBBS   0/580
OS2HW   0/42
OS2INET   0/37
OS2LAN   0/134
OS2PROG   0/36
OS2REXX   0/113
OS2USER-L   207
OS2   0/4830
OSDEBATE   0/18996
PASCAL   0/490
PERL   0/457
PHP   0/45
POINTS   0/405
POLITICS   0/29554
POL_INC   0/14731
PSION   103
R20_ADMIN   1133
R20_AMATORRADIO   0/2
R20_BEST_OF_FIDONET   16
R20_CHAT   0/896
R20_DEPP   0/3
R20_DEV   400
R20_ECHO2   1831
R20_ECHOPRES   0/35
R20_ESTAT   0/719
R20_FIDONETPROG...
...RAM.MYPOINT
  0/2
R20_FIDONETPROGRAM   0/22
R20_FIDONET   0/248
R20_FILEFIND   0/24
R20_FILEFOUND   0/22
R20_HIFI   0/3
R20_INFO2   3723
R20_INTERNET   0/12940
R20_INTRESSE   0/60
R20_INTR_KOM   0/99
R20_KANDIDAT.CHAT   42
R20_KANDIDAT   28
R20_KOM_DEV   112
R20_KONTROLL   0/13360
R20_KORSET   0/18
R20_LOKALTRAFIK   0/24
R20_MODERATOR   0/1852
R20_NC   76
R20_NET200   245
R20_NETWORK.OTH...
...ERNETS
  0/13
R20_OPERATIVSYS...
...TEM.LINUX
  0/44
R20_PROGRAMVAROR   0/1
R20_REC2NEC   534
R20_SFOSM   0/341
R20_SF   0/108
R20_SPRAK.ENGLISH   0/1
R20_SQUISH   107
R20_TEST   2
R20_WORST_OF_FIDONET   20
RAR   0/9
RA_MULTI   106
RA_UTIL   0/162
REGCON.EUR   0/2068
REGCON   0/13
SCIENCE   0/1206
SF   0/239
SHAREWARE_SUPPORT   0/5146
SHAREWRE   0/14
SIMPSONS   0/169
STATS_OLD1   0/2539.065
STATS_OLD2   0/2530
STATS_OLD3   0/2395.095
STATS_OLD4   0/1692.25
SURVIVOR   0/495
SYSOPS_CORNER   0/3
SYSOP   0/84
TAGLINES   0/112
TEAMOS2   0/4530
TECH   0/2617
TEST.444   0/105
TRAPDOOR   0/19
TREK   0/755
TUB   0/290
UFO   0/40
UNIX   0/1316
USA_EURLINK   0/102
USR_MODEMS   0/1
VATICAN   0/2740
VIETNAM_VETS   0/14
VIRUS   0/378
VIRUS_INFO   0/201
VISUAL_BASIC   0/473
WHITEHOUSE   0/5187
WIN2000   0/101
WIN32   0/30
WIN95   0/4291
WIN95_OLD1   0/70272
WINDOWS   0/1517
WWB_SYSOP   0/419
WWB_TECH   0/810
ZCC-PUBLIC   0/1
ZEC   4

 
4DOS   0/134
ABORTION   0/7
ALASKA_CHAT   0/506
ALLFIX_FILE   0/1313
ALLFIX_FILE_OLD1   0/7997
ALT_DOS   0/152
AMATEUR_RADIO   0/1039
AMIGASALE   0/14
AMIGA   0/331
AMIGA_INT   0/1
AMIGA_PROG   0/20
AMIGA_SYSOP   0/26
ANIME   0/15
ARGUS   0/924
ASCII_ART   0/340
ASIAN_LINK   0/651
ASTRONOMY   0/417
AUDIO   0/92
AUTOMOBILE_RACING   0/105
BABYLON5   0/17862
BAG   135
BATPOWER   0/361
BBBS.ENGLISH   0/382
BBSLAW   0/109
BBS_ADS   0/5290
BBS_INTERNET   0/507
BIBLE   0/3563
BINKD   0/1119
BINKLEY   0/215
BLUEWAVE   0/2173
CABLE_MODEMS   0/25
CBM   0/46
CDRECORD   0/66
CDROM   0/20
CLASSIC_COMPUTER   0/378
COMICS   0/15
CONSPRCY   0/899
COOKING   41444
COOKING_OLD1   0/24719
COOKING_OLD2   0/40862
COOKING_OLD3   0/37489
COOKING_OLD4   0/35496
COOKING_OLD5   9370
C_ECHO   0/189
C_PLUSPLUS   0/31
DIRTY_DOZEN   0/201
DOORGAMES   0/2285
DOS_INTERNET   0/196
duplikat   6102
ECHOLIST   0/18295
EC_SUPPORT   0/318
ELECTRONICS   0/359
ELEKTRONIK.GER   1534
ENET.LINGUISTIC   0/13
ENET.POLITICS   0/4
ENET.SOFT   0/11701
ENET.SYSOP   34296
ENET.TALKS   0/32
ENGLISH_TUTOR   0/2000
EVOLUTION   0/1335
FDECHO   0/217
FDN_ANNOUNCE   0/7068
FIDONEWS   25062
FIDONEWS_OLD1   0/49742
FIDONEWS_OLD2   0/35949
FIDONEWS_OLD3   0/30874
FIDONEWS_OLD4   0/37224
FIDO_SYSOP   12922
FIDO_UTIL   0/180
FILEFIND   0/209
FILEGATE   0/212
Möte HAM, 16660 texter
 lista första sista föregående nästa
Text 4939, 937 rader
Skriven 2011-12-08 23:00:58 av Amsat List (1:323/120.0)
Ärende: [keps] orb11342.amsa
============================
[keps] orb11342.amsa

Sender: keps-bounces@amsat.org
Return-Path: <keps-bounces@amsat.org>
X-Rcpt: craig.healy@chowda.com
X-UIDL: 1323401540.588

SB KEPS @ AMSAT  $ORB11342.O
Orbital Elements  11342.OSCAR

HR AMSAT ORBITAL ELEMENTS FOR OSCAR SATELLITES
FROM WA5QGD FORT WORTH,TX December 8, 2011
Send Subscribe/unsubscribe to KEPS at http://www.amsat.org/mailman/listinfo/kep
BID: ORB11342.O
TO ALL RADIO AMATEURS BT

Satellite: AO-07
Catalog number: 07530
Epoch time:      11341.57430702
Element set:     248
Inclination:      101.3965 deg
RA of node:       341.2917 deg
Eccentricity:    0.0011921
Arg of perigee:   300.4499 deg
Mean anomaly:     059.5392 deg
Mean motion:   12.53586026 rev/day
Decay rate:       -2.7e-07 rev/day^2
Epoch rev:           69591
Checksum:              291

Satellite: FO-29
Catalog number: 24278
Epoch time:      11341.91469870
Element set:     725
Inclination:      098.5714 deg
RA of node:       102.8633 deg
Eccentricity:    0.0350792
Arg of perigee:   167.0654 deg
Mean anomaly:     193.9776 deg
Mean motion:   13.52973381 rev/day
Decay rate:        2.4e-07 rev/day^2
Epoch rev:           75595
Checksum:              346

Satellite: SO-33
Catalog number: 25509
Epoch time:      11341.41242644
Element set:    0117
Inclination:      031.4366 deg
RA of node:       344.4801 deg
Eccentricity:    0.0353135
Arg of perigee:   316.5735 deg
Mean anomaly:     040.7573 deg
Mean motion:   14.28593202 rev/day
Decay rate:      1.595e-05 rev/day^2
Epoch rev:           68506
Checksum:              286

Satellite: RS-22
Catalog number: 27939
Epoch time:      11342.61635464
Element set:     881
Inclination:      097.8250 deg
RA of node:       188.0955 deg
Eccentricity:    0.0013920
Arg of perigee:   148.6387 deg
Mean anomaly:     211.5651 deg
Mean motion:   14.63811456 rev/day
Decay rate:      1.245e-05 rev/day^2
Epoch rev:           43785
Checksum:              324

Satellite: VO-52
Catalog number: 28650
Epoch time:      11342.73776834
Element set:     968
Inclination:      097.6229 deg
RA of node:       017.8823 deg
Eccentricity:    0.0025872
Arg of perigee:   311.8294 deg
Mean anomaly:     048.0732 deg
Mean motion:   14.82504636 rev/day
Decay rate:      2.504e-05 rev/day^2
Epoch rev:           35660
Checksum:              326

Satellite: SO-67
Catalog number: 35870
Epoch time:      11342.67103588
Element set:     476
Inclination:      097.2608 deg
RA of node:       020.0973 deg
Eccentricity:    0.0003322
Arg of perigee:   109.2939 deg
Mean anomaly:     037.5138 deg
Mean motion:   15.22186073 rev/day
Decay rate:      7.850e-05 rev/day^2
Epoch rev:           12346
Checksum:              305

Satellite: HO-68
Catalog number: 36122
Epoch time:      11342.67653682
Element set:     994
Inclination:      100.3934 deg
RA of node:       040.6640 deg
Eccentricity:    0.0007518
Arg of perigee:   184.5998 deg
Mean anomaly:     175.5052 deg
Mean motion:   13.16291100 rev/day
Decay rate:       -4.4e-07 rev/day^2
Epoch rev:            9519
Checksum:              302

/EX
SB KEPS @ AMSAT  $ORB11342.D
Orbital Elements  11342.MICROS

HR AMSAT ORBITAL ELEMENTS FOR THE MICROSATS
FROM WA5QGD FORT WORTH,TX December 8, 2011
Send Subscribe/unsubscribe to KEPS at http://www.amsat.org/mailman/listinfo/kep
BID: ORB11342.D
TO ALL RADIO AMATEURS BT

Satellite: UO-11
Catalog number: 14781
Epoch time:      11341.95398121
Element set:    0735
Inclination:      097.9821 deg
RA of node:       037.9058 deg
Eccentricity:    0.0008226
Arg of perigee:   300.5565 deg
Mean anomaly:     059.4837 deg
Mean motion:   14.80215736 rev/day
Decay rate:      1.326e-05 rev/day^2
Epoch rev:           49149
Checksum:              317

Satellite: AO-16
Catalog number: 20439
Epoch time:      11341.87158856
Element set:     343
Inclination:      098.4071 deg
RA of node:       285.8740 deg
Eccentricity:    0.0011488
Arg of perigee:   013.2574 deg
Mean anomaly:     346.8907 deg
Mean motion:   14.31990233 rev/day
Decay rate:       3.75e-06 rev/day^2
Epoch rev:           14247
Checksum:              315

Satellite: LO-19
Catalog number: 20442
Epoch time:      11342.90209184
Element set:     266
Inclination:      098.3712 deg
RA of node:       290.5673 deg
Eccentricity:    0.0012110
Arg of perigee:   002.9781 deg
Mean anomaly:     357.1473 deg
Mean motion:   14.32213741 rev/day
Decay rate:       4.74e-06 rev/day^2
Epoch rev:           14280
Checksum:              272

Satellite: AO-27
Catalog number: 22825
Epoch time:      11342.87265092
Element set:     978
Inclination:      098.5529 deg
RA of node:       283.8937 deg
Eccentricity:    0.0008990
Arg of perigee:   117.8538 deg
Mean anomaly:     242.3552 deg
Mean motion:   14.29407401 rev/day
Decay rate:       3.17e-06 rev/day^2
Epoch rev:           94914
Checksum:              342

Satellite: IO-26
Catalog number: 22826
Epoch time:      11342.90981326
Element set:     725
Inclination:      098.5473 deg
RA of node:       284.3531 deg
Eccentricity:    0.0009709
Arg of perigee:   113.1426 deg
Mean anomaly:     247.0778 deg
Mean motion:   14.29675600 rev/day
Decay rate:       3.02e-06 rev/day^2
Epoch rev:           94927
Checksum:              317

Satellite: GO-32
Catalog number: 25397
Epoch time:      11341.84244426
Element set:    0648
Inclination:      098.3432 deg
RA of node:       325.2562 deg
Eccentricity:    0.0002189
Arg of perigee:   112.7383 deg
Mean anomaly:     247.4022 deg
Mean motion:   14.23244444 rev/day
Decay rate:       2.79e-06 rev/day^2
Epoch rev:           69666
Checksum:              306

